Flag for Indonesia Weather past 2 weeks in Tanjung Pinang, Riau Islands, Indonesia

Now
88 °F

Partly sunny.


Feels Like: 98 °F
Forecast: 82 / 88 °F
Wind: 5 mph from Southwest

Location: Changi Airport

Current Time: Jul 23, 2014 at 5:25:57 PM

Latest Report: Jul 23, 2014 at 4:30 PM


Visibility: N/A

Pressure: 29.77 "Hg

Humidity: 66%

Dew point: 75 °F

Location of Tanjung PinangLocation

Historic Weather in Tanjung Pinang — Graph

°F

Tanjung Pinang temperature yesterday

Maximum temperature yesterday: 90 °F (at 11:00 AM)
Minimum temperature yesterday: 82 °F (at 3:30 AM)
Average temperature yesterday: 86 °F

Past Weeks' High & Low Weather Summary

 TemperatureHumidityPressure
High90 °F (Jul 10, 1:00 PM)100% (Jul 11, 10:00 PM)29.89 "Hg (Jul 11, 10:00 PM)
Low73 °F (Jul 9, 6:30 AM)52% (Jul 14, 4:00 PM)29.71 "Hg (Jul 8, 4:00 PM)
Average84 °F78%29.81 "Hg
* Reported Jul 8 4:00 PM — Jul 23 4:00 PM, Tanjung Pinang, Weather by CustomWeather, © 2014

Note: Actual official high and low records may vary slightly from our data, if they occured in-between our weather recording intervals... More about our weather records

Advertising

Tanjung Pinang weather history for previous 24 hours

 ConditionsComfort  
Time TempWeatherWind HumidityBarometerVisibility
4:00 PM
Jul 23
88 °FPartly sunny.6 mph66%29.77 "HgN/A
3:30 PM88 °FPartly sunny.5 mph62%29.77 "HgN/A
3:00 PM88 °FBroken clouds.6 mph62%29.77 "HgN/A
1:00 PM90 °FPartly sunny.13 mph63%29.83 "HgN/A
12:00 PM90 °FPartly sunny.6 mph63%29.83 "HgN/A
11:30 AM88 °FPartly sunny.10 mph70%29.83 "HgN/A
11:00 AM90 °FPartly sunny.7 mph67%29.86 "HgN/A
10:30 AM88 °FBroken clouds.7 mph70%29.89 "HgN/A
10:00 AM88 °FBroken clouds.6 mph70%29.89 "HgN/A
9:30 AM88 °FBroken clouds.6 mph70%29.89 "HgN/A
9:00 AM86 °FPartly sunny.6 mph75%29.89 "HgN/A
8:30 AM86 °FPartly sunny.8 mph75%29.89 "HgN/A
8:00 AM86 °FPartly sunny.7 mph75%29.86 "HgN/A
7:00 AM84 °FPartly sunny.8 mph79%29.83 "HgN/A
12:00 AM84 °FPassing clouds.6 mph79%29.86 "HgN/A
11:30 PM
Jul 22
84 °FPassing clouds.6 mph79%29.86 "HgN/A
11:00 PM84 °FPassing clouds.3 mph79%29.89 "HgN/A
10:30 PM84 °FPassing clouds.3 mph79%29.89 "HgN/A
10:00 PM84 °FPassing clouds.6 mph79%29.89 "HgN/A
9:30 PM84 °FPassing clouds.5 mph74%29.89 "HgN/A
9:00 PM84 °FPassing clouds.2 mph74%29.89 "HgN/A
8:30 PM84 °FPassing clouds.5 mph74%29.89 "HgN/A
8:00 PM84 °FPassing clouds.7 mph74%29.86 "HgN/A
7:30 PM84 °FPassing clouds.8 mph74%29.86 "HgN/A
7:00 PM86 °FPassing clouds.9 mph70%29.83 "HgN/A
6:30 PM86 °FPassing clouds.7 mph70%29.83 "HgN/A
6:00 PM86 °FScattered clouds.7 mph70%29.80 "HgN/A
5:30 PM86 °FScattered clouds.6 mph75%29.80 "HgN/A
5:00 PM86 °FScattered clouds.8 mph75%29.77 "HgN/A
Weather by CustomWeather, © 2014

See weather overviewHow to use our weather pages